| time (UTC) | temp F | wind direction | speed MPH | gust MPH | rain 1hr in | rain 24hr in | rain mn in | humidity % | barometer mb |
| 20260902200002 | 59 | 0 | 0.0 | 0.0 | 0.14 | 0.26 | 0.26 | 93 | 1004.3 |
| 20260902195502 | 58 | 82 | 0.0 | 1.0 | 0.14 | 0.26 | 0.26 | 93 | 1004.3 |
| 20260902195002 | 58 | 82 | 0.0 | 1.0 | 0.13 | 0.24 | 0.25 | 93 | 1004.4 |
| 20260902194523 | 58 | 0 | 0.0 | 0.0 | 0.14 | 0.24 | 0.24 | 92 | 1004.6 |
| 20260902194002 | 58 | 0 | 0.0 | 0.0 | 0.12 | 0.22 | 0.22 | 92 | 1004.7 |
| 20260902193502 | 59 | 0 | 0.0 | 0.0 | 0.10 | 0.20 | 0.20 | 92 | 1004.7 |
| 20260902193023 | 59 | 0 | 0.0 | 0.0 | 0.09 | 0.19 | 0.19 | 92 | 1004.9 |
| 20260902192523 | 59 | 0 | 0.0 | 0.0 | 0.08 | 0.18 | 0.18 | 91 | 1004.9 |
| 20260902192003 | 59 | 0 | 0.0 | 0.0 | 0.07 | 0.16 | 0.16 | 91 | 1004.9 |
| 20260902191502 | 59 | 0 | 0.0 | 0.0 | 0.05 | 0.14 | 0.14 | 91 | 1004.8 |
| 20260902191002 | 59 | 129 | 0.0 | 2.0 | 0.05 | 0.13 | 0.13 | 91 | 1004.9 |
| 20260902190523 | 59 | 129 | 0.0 | 2.0 | 0.05 | 0.13 | 0.13 | 91 | 1004.8 |
| 20260902190002 | 59 | 0 | 0.0 | 0.0 | 0.05 | 0.12 | 0.12 | 91 | 1004.7 |
| 20260902185502 | 59 | 99 | 0.0 | 3.0 | 0.06 | 0.12 | 0.12 | 90 | 1004.6 |
| 20260902185002 | 59 | 100 | 1.0 | 6.0 | 0.05 | 0.11 | 0.11 | 90 | 1004.7 |
| 20260902184502 | 59 | 100 | 1.0 | 6.0 | 0.05 | 0.10 | 0.10 | 90 | 1004.8 |
| 20260902184002 | 59 | 93 | 0.0 | 3.0 | 0.06 | 0.10 | 0.10 | 90 | 1004.8 |
| 20260902183524 | 59 | 111 | 0.0 | 1.0 | 0.06 | 0.10 | 0.10 | 90 | 1004.8 |
| 20260902183002 | 59 | 0 | 0.0 | 0.0 | 0.06 | 0.10 | 0.10 | 89 | 1005.0 |
| 20260902182502 | 59 | 0 | 0.0 | 0.0 | 0.07 | 0.10 | 0.10 | 89 | 1005.1 |
| 20260902182002 | 59 | 0 | 0.0 | 0.0 | 0.07 | 0.09 | 0.09 | 88 | 1005.2 |
| 20260902181502 | 59 | 218 | 0.0 | 2.0 | 0.08 | 0.09 | 0.09 | 88 | 1005.3 |
| 20260902181002 | 59 | 202 | 0.0 | 2.0 | 0.07 | 0.08 | 0.08 | 88 | 1005.4 |
| 20260902180502 | 59 | 196 | 0.0 | 2.0 | 0.08 | 0.08 | 0.08 | 86 | 1005.5 |
| 20260902180005 | 60 | 203 | 0.0 | 1.0 | 0.07 | 0.07 | 0.07 | 86 | 1005.5 |
| 20260902175523 | 60 | 203 | 0.0 | 1.0 | 0.06 | 0.06 | 0.06 | 85 | 1005.6 |
| 20260902175002 | 61 | 211 | 0.0 | 1.0 | 0.06 | 0.06 | 0.06 | 84 | 1005.6 |
| 20260902174523 | 61 | 211 | 0.0 | 1.0 | 0.05 | 0.05 | 0.05 | 82 | 1005.5 |
| 20260902174023 | 62 | 0 | 0.0 | 0.0 | 0.04 | 0.04 | 0.04 | 82 | 1005.4 |
| 20260902173502 | 62 | 0 | 0.0 | 0.0 | 0.04 | 0.04 | 0.04 | 81 | 1005.3 |
| 20260902173002 | 63 | 0 | 0.0 | 0.0 | 0.04 | 0.04 | 0.04 | 80 | 1005.2 |
| 20260902172523 | 63 | 0 | 0.0 | 0.0 | 0.03 | 0.03 | 0.03 | 78 | 1005.2 |
| 20260902172002 | 63 | 0 | 0.0 | 0.0 | 0.02 | 0.02 | 0.02 | 77 | 1005.1 |
| 20260902171524 | 64 | 211 | 0.0 | 1.0 | 0.01 | 0.01 | 0.01 | 76 | 1005.0 |
| 20260902171002 | 64 | 211 | 0.0 | 1.0 | 0.01 | 0.01 | 0.01 | 73 | 1004.8 |
| 20260902170502 | 64 | 211 | 0.0 | 1.0 | 0.00 | 0.00 | 0.00 | 71 | 1004.8 |
| 20260902170002 | 64 | 0 | 0.0 | 0.0 | 0.00 | 0.00 | 0.00 | 71 | 1004.7 |
| 20260902165502 | 64 | 0 | 0.0 | 0.0 | 0.00 | 0.00 | 0.00 | 69 | 1004.7 |
| 20260902165002 | 64 | 0 | 0.0 | 0.0 | 0.00 | 0.00 | 0.00 | 67 | 1004.7 |
| 20260902164502 | 65 | 0 | 0.0 | 0.0 | 0.00 | 0.00 | 0.00 | 66 | 1004.6 |
| 20260902164002 | 65 | 195 | 0.0 | 1.0 | 0.00 | 0.00 | 0.00 | 66 | 1004.7 |
| 20260902163502 | 65 | 199 | 0.0 | 1.0 | 0.00 | 0.00 | 0.00 | 66 | 1004.6 |
| 20260902163002 | 65 | 191 | 0.0 | 4.0 | 0.00 | 0.00 | 0.00 | 66 | 1004.6 |
| 20260902162502 | 65 | 174 | 0.0 | 4.0 | 0.00 | 0.00 | 0.00 | 66 | 1004.7 |
| 20260902162003 | 65 | 177 | 0.0 | 4.0 | 0.00 | 0.00 | 0.00 | 66 | 1004.7 |
| 20260902161502 | 64 | 197 | 0.0 | 4.0 | 0.00 | 0.00 | 0.00 | 65 | 1004.7 |
| 20260902161002 | 64 | 0 | 0.0 | 0.0 | 0.00 | 0.00 | 0.00 | 65 | 1004.7 |
| 20260902160502 | 64 | 0 | 0.0 | 0.0 | 0.00 | 0.00 | 0.00 | 66 | 1004.7 |
| 20260902160003 | 64 | 131 | 0.0 | 2.0 | 0.00 | 0.00 | 0.00 | 66 | 1004.8 |
| 20260902155502 | 64 | 131 | 0.0 | 2.0 | 0.00 | 0.00 | 0.00 | 67 | 1004.8 |
| 20260902155003 | 63 | 0 | 0.0 | 0.0 | 0.00 | 0.00 | 0.00 | 68 | 1004.9 |
| 20260902154523 | 63 | 0 | 0.0 | 0.0 | 0.00 | 0.00 | 0.00 | 69 | 1004.9 |
| 20260902154002 | 63 | 0 | 0.0 | 0.0 | 0.00 | 0.00 | 0.00 | 69 | 1005.0 |
| 20260902153502 | 62 | 0 | 0.0 | 0.0 | 0.00 | 0.00 | 0.00 | 70 | 1005.0 |
| 20260902153002 | 62 | 0 | 0.0 | 0.0 | 0.00 | 0.00 | 0.00 | 72 | 1005.1 |
| 20260902152502 | 62 | 0 | 0.0 | 0.0 | 0.00 | 0.00 | 0.00 | 72 | 1005.1 |
| 20260902152002 | 62 | 0 | 0.0 | 0.0 | 0.00 | 0.00 | 0.00 | 73 | 1005.2 |
| 20260902151502 | 62 | 0 | 0.0 | 0.0 | 0.00 | 0.00 | 0.00 | 73 | 1005.3 |
| 20260902151003 | 61 | 0 | 0.0 | 0.0 | 0.00 | 0.00 | 0.00 | 73 | 1005.3 |
| 20260902150502 | 61 | 0 | 0.0 | 0.0 | 0.00 | 0.00 | 0.00 | 73 | 1005.3 |
| 20260902150002 | 61 | 78 | 0.0 | 1.0 | 0.00 | 0.00 | 0.00 | 73 | 1005.3 |
| 20260902145502 | 61 | 78 | 0.0 | 1.0 | 0.00 | 0.00 | 0.00 | 74 | 1005.4 |
| 20260902145002 | 61 | 0 | 0.0 | 0.0 | 0.00 | 0.00 | 0.00 | 74 | 1005.5 |
| 20260902144502 | 61 | 0 | 0.0 | 0.0 | 0.00 | 0.00 | 0.00 | 74 | 1005.6 |
| 20260902144002 | 61 | 0 | 0.0 | 0.0 | 0.00 | 0.00 | 0.00 | 74 | 1005.6 |
| 20260902143504 | 61 | 0 | 0.0 | 0.0 | 0.00 | 0.00 | 0.00 | 75 | 1005.6 |
| 20260902143024 | 60 | 0 | 0.0 | 0.0 | 0.00 | 0.00 | 0.00 | 75 | 1005.6 |
| 20260902142502 | 60 | 0 | 0.0 | 0.0 | 0.00 | 0.00 | 0.00 | 76 | 1005.7 |
| 20260902142002 | 60 | 0 | 0.0 | 0.0 | 0.00 | 0.00 | 0.00 | 76 | 1005.7 |
| 20260902141502 | 60 | 0 | 0.0 | 0.0 | 0.00 | 0.00 | 0.00 | 76 | 1005.8 |
| 20260902141002 | 60 | 0 | 0.0 | 0.0 | 0.00 | 0.00 | 0.00 | 76 | 1005.8 |
| 20260902140523 | 60 | 0 | 0.0 | 0.0 | 0.00 | 0.00 | 0.00 | 76 | 1005.9 |
| 20260902140002 | 60 | 0 | 0.0 | 0.0 | 0.00 | 0.00 | 0.00 | 76 | 1006.0 |
| 20260902135523 | 60 | 0 | 0.0 | 0.0 | 0.00 | 0.00 | 0.00 | 76 | 1006.1 |
| 20260902135002 | 60 | 0 | 0.0 | 0.0 | 0.00 | 0.00 | 0.00 | 76 | 1006.1 |
| 20260902134523 | 60 | 0 | 0.0 | 0.0 | 0.00 | 0.00 | 0.00 | 76 | 1006.2 |
| 20260902134002 | 60 | 0 | 0.0 | 0.0 | 0.00 | 0.00 | 0.00 | 76 | 1006.2 |
| 20260902133502 | 60 | 0 | 0.0 | 0.0 | 0.00 | 0.00 | 0.00 | 76 | 1006.2 |
| 20260902133002 | 60 | 0 | 0.0 | 0.0 | 0.00 | 0.00 | 0.00 | 76 | 1006.3 |
| 20260902132502 | 60 | 0 | 0.0 | 0.0 | 0.00 | 0.00 | 0.00 | 76 | 1006.4 |
| 20260902132023 | 60 | 0 | 0.0 | 0.0 | 0.00 | 0.00 | 0.00 | 76 | 1006.5 |
| 20260902131502 | 60 | 0 | 0.0 | 0.0 | 0.00 | 0.00 | 0.00 | 76 | 1006.4 |
| 20260902131002 | 60 | 0 | 0.0 | 0.0 | 0.00 | 0.00 | 0.00 | 76 | 1006.5 |
| 20260902130502 | 60 | 0 | 0.0 | 0.0 | 0.00 | 0.00 | 0.00 | 76 | 1006.6 |
| 20260902130002 | 60 | 0 | 0.0 | 0.0 | 0.00 | 0.00 | 0.00 | 76 | 1006.8 |
| 20260902125523 | 60 | 0 | 0.0 | 0.0 | 0.00 | 0.00 | 0.00 | 76 | 1006.9 |
| 20260902125002 | 60 | 0 | 0.0 | 0.0 | 0.00 | 0.00 | 0.00 | 76 | 1006.9 |
| 20260902124502 | 60 | 0 | 0.0 | 0.0 | 0.00 | 0.00 | 0.00 | 77 | 1006.9 |
| 20260902124002 | 60 | 111 | 0.0 | 1.0 | 0.00 | 0.00 | 0.00 | 77 | 1007.0 |
| 20260902123502 | 60 | 108 | 0.0 | 1.0 | 0.00 | 0.00 | 0.00 | 77 | 1007.1 |
| 20260902123002 | 60 | 112 | 0.0 | 2.0 | 0.00 | 0.00 | 0.00 | 77 | 1007.0 |
| 20260902122502 | 60 | 113 | 0.0 | 2.0 | 0.00 | 0.00 | 0.00 | 77 | 1007.2 |
| 20260902122023 | 60 | 0 | 0.0 | 0.0 | 0.00 | 0.00 | 0.00 | 77 | 1007.3 |
| 20260902121523 | 60 | 0 | 0.0 | 0.0 | 0.00 | 0.00 | 0.00 | 77 | 1007.3 |
| 20260902121002 | 60 | 136 | 0.0 | 1.0 | 0.00 | 0.00 | 0.00 | 77 | 1007.4 |
| 20260902120502 | 60 | 113 | 0.0 | 1.0 | 0.00 | 0.00 | 0.00 | 78 | 1007.5 |
| 20260902120002 | 60 | 90 | 0.0 | 1.0 | 0.00 | 0.00 | 0.00 | 78 | 1007.6 |
| 20260902115502 | 60 | 0 | 0.0 | 0.0 | 0.00 | 0.00 | 0.00 | 78 | 1007.6 |
| 20260902115002 | 60 | 0 | 0.0 | 0.0 | 0.00 | 0.00 | 0.00 | 78 | 1007.7 |
| 20260902114503 | 59 | 0 | 0.0 | 0.0 | 0.00 | 0.00 | 0.00 | 79 | 1007.8 |
| 20260902114024 | 59 | 113 | 0.0 | 1.0 | 0.00 | 0.00 | 0.00 | 79 | 1007.8 |
| 20260902113503 | 59 | 113 | 0.0 | 1.0 | 0.00 | 0.00 | 0.00 | 79 | 1007.8 |
| 20260902113024 | 59 | 119 | 0.0 | 7.0 | 0.00 | 0.00 | 0.00 | 80 | 1007.9 |
| 20260902112502 | 59 | 119 | 0.0 | 7.0 | 0.00 | 0.00 | 0.00 | 80 | 1007.9 |
| 20260902112002 | 59 | 0 | 0.0 | 0.0 | 0.00 | 0.00 | 0.00 | 81 | 1008.0 |
| 20260902111523 | 59 | 0 | 0.0 | 0.0 | 0.00 | 0.00 | 0.00 | 82 | 1008.0 |
| 20260902111002 | 59 | 0 | 0.0 | 0.0 | 0.00 | 0.00 | 0.00 | 82 | 1008.0 |
| 20260902110502 | 59 | 0 | 0.0 | 0.0 | 0.00 | 0.00 | 0.00 | 83 | 1008.1 |
| 20260902110003 | 59 | 0 | 0.0 | 0.0 | 0.00 | 0.00 | 0.00 | 83 | 1008.1 |
| 20260902105502 | 59 | 0 | 0.0 | 0.0 | 0.00 | 0.00 | 0.00 | 82 | 1008.1 |
| 20260902105002 | 59 | 0 | 0.0 | 0.0 | 0.00 | 0.00 | 0.00 | 82 | 1008.3 |
| 20260902104503 | 59 | 0 | 0.0 | 0.0 | 0.00 | 0.00 | 0.00 | 82 | 1008.2 |
| 20260902104002 | 59 | 0 | 0.0 | 0.0 | 0.00 | 0.00 | 0.00 | 82 | 1008.2 |
| 20260902103502 | 59 | 0 | 0.0 | 0.0 | 0.00 | 0.00 | 0.00 | 82 | 1008.3 |
| 20260902103002 | 59 | 0 | 0.0 | 0.0 | 0.00 | 0.00 | 0.00 | 82 | 1008.4 |
| 20260902102502 | 59 | 0 | 0.0 | 0.0 | 0.00 | 0.00 | 0.00 | 82 | 1008.4 |
| 20260902102002 | 59 | 0 | 0.0 | 0.0 | 0.00 | 0.00 | 0.00 | 82 | 1008.4 |
| 20260902101502 | 59 | 0 | 0.0 | 0.0 | 0.00 | 0.00 | 0.00 | 82 | 1008.4 |
| 20260902101003 | 59 | 0 | 0.0 | 0.0 | 0.00 | 0.00 | 0.00 | 82 | 1008.4 |
| 20260902100503 | 59 | 0 | 0.0 | 0.0 | 0.00 | 0.00 | 0.00 | 82 | 1008.5 |
| 20260902100002 | 59 | 0 | 0.0 | 0.0 | 0.00 | 0.00 | 0.00 | 82 | 1008.5 |
| 20260902095502 | 59 | 0 | 0.0 | 0.0 | 0.00 | 0.00 | 0.00 | 82 | 1008.5 |
| 20260902095002 | 59 | 0 | 0.0 | 0.0 | 0.00 | 0.00 | 0.00 | 82 | 1008.5 |
| 20260902094502 | 58 | 0 | 0.0 | 0.0 | 0.00 | 0.00 | 0.00 | 82 | 1008.6 |
| 20260902094002 | 58 | 0 | 0.0 | 0.0 | 0.00 | 0.00 | 0.00 | 83 | 1008.6 |
| 20260902093502 | 58 | 0 | 0.0 | 0.0 | 0.00 | 0.00 | 0.00 | 83 | 1008.7 |
| 20260902093002 | 58 | 0 | 0.0 | 0.0 | 0.00 | 0.00 | 0.00 | 83 | 1008.9 |
| 20260902092523 | 58 | 0 | 0.0 | 0.0 | 0.00 | 0.00 | 0.00 | 83 | 1008.9 |
| 20260902092002 | 58 | 0 | 0.0 | 0.0 | 0.00 | 0.00 | 0.00 | 84 | 1008.9 |
| 20260902091502 | 58 | 0 | 0.0 | 0.0 | 0.00 | 0.00 | 0.00 | 84 | 1009.1 |
| 20260902091002 | 58 | 0 | 0.0 | 0.0 | 0.00 | 0.00 | 0.00 | 84 | 1009.1 |
| 20260902090502 | 58 | 0 | 0.0 | 0.0 | 0.00 | 0.00 | 0.00 | 84 | 1009.0 |
| 20260902090002 | 58 | 0 | 0.0 | 0.0 | 0.00 | 0.00 | 0.00 | 84 | 1009.1 |
| 20260902085502 | 58 | 0 | 0.0 | 0.0 | 0.00 | 0.00 | 0.00 | 83 | 1009.2 |
| 20260902085002 | 58 | 0 | 0.0 | 0.0 | 0.00 | 0.00 | 0.00 | 83 | 1009.3 |
| 20260902084502 | 58 | 0 | 0.0 | 0.0 | 0.00 | 0.00 | 0.00 | 83 | 1009.3 |
| 20260902084002 | 58 | 0 | 0.0 | 0.0 | 0.00 | 0.00 | 0.00 | 83 | 1009.3 |
| 20260902083523 | 58 | 0 | 0.0 | 0.0 | 0.00 | 0.00 | 0.00 | 84 | 1009.2 |
| 20260902083002 | 58 | 0 | 0.0 | 0.0 | 0.00 | 0.00 | 0.00 | 84 | 1009.3 |
| 20260902082523 | 59 | 0 | 0.0 | 0.0 | 0.00 | 0.00 | 0.00 | 84 | 1009.3 |
| 20260902082023 | 59 | 0 | 0.0 | 0.0 | 0.00 | 0.00 | 0.00 | 84 | 1009.2 |
| 20260902081503 | 59 | 0 | 0.0 | 0.0 | 0.00 | 0.00 | 0.00 | 84 | 1009.2 |
| 20260902081002 | 59 | 0 | 0.0 | 0.0 | 0.00 | 0.00 | 0.00 | 84 | 1009.2 |
| 20260902080523 | 59 | 0 | 0.0 | 0.0 | 0.00 | 0.00 | 0.00 | 84 | 1009.2 |
| 20260902080002 | 59 | 0 | 0.0 | 0.0 | 0.00 | 0.00 | 0.00 | 84 | 1009.2 |
| 20260902075502 | 59 | 184 | 0.0 | 1.0 | 0.00 | 0.00 | 0.00 | 84 | 1009.2 |
| 20260902075002 | 59 | 184 | 0.0 | 1.0 | 0.00 | 0.00 | 0.00 | 84 | 1009.1 |
| 20260902074502 | 59 | 0 | 0.0 | 0.0 | 0.00 | 0.00 | 0.00 | 84 | 1009.2 |
| 20260902074003 | 60 | 0 | 0.0 | 0.0 | 0.00 | 0.00 | 0.00 | 84 | 1009.2 |
| 20260902073502 | 60 | 0 | 0.0 | 0.0 | 0.00 | 0.00 | 0.00 | 84 | 1009.3 |
| 20260902073023 | 60 | 0 | 0.0 | 0.0 | 0.00 | 0.00 | 0.00 | 84 | 1009.3 |
| 20260902072502 | 60 | 182 | 0.0 | 1.0 | 0.00 | 0.00 | 0.00 | 84 | 1009.4 |
| 20260902072002 | 60 | 182 | 0.0 | 1.0 | 0.00 | 0.00 | 0.00 | 84 | 1009.4 |
| 20260902071502 | 60 | 154 | 0.0 | 4.0 | 0.00 | 0.00 | 0.00 | 83 | 1009.5 |
| 20260902071002 | 60 | 166 | 0.0 | 4.0 | 0.00 | 0.00 | 0.00 | 83 | 1009.5 |
| 20260902070502 | 60 | 187 | 0.0 | 2.0 | 0.00 | 0.00 | 0.00 | 83 | 1009.5 |
| 20260902070003 | 61 | 163 | 0.0 | 3.0 | 0.00 | 0.00 | 0.00 | 82 | 1009.6 |
| 20260902065502 | 61 | 168 | 1.0 | 6.0 | 0.00 | 0.00 | 0.00 | 80 | 1009.7 |
| 20260902065003 | 61 | 186 | 0.0 | 6.0 | 0.00 | 0.00 | 0.00 | 79 | 1009.7 |
| 20260902064502 | 61 | 0 | 0.0 | 0.0 | 0.00 | 0.00 | 0.00 | 79 | 1009.7 |
| 20260902064003 | 61 | 0 | 0.0 | 0.0 | 0.00 | 0.00 | 0.00 | 79 | 1009.7 |
| 20260902063502 | 61 | 0 | 0.0 | 0.0 | 0.00 | 0.00 | 0.00 | 79 | 1009.7 |
| 20260902063002 | 61 | 0 | 0.0 | 0.0 | 0.00 | 0.00 | 0.00 | 79 | 1009.8 |
| 20260902062502 | 61 | 0 | 0.0 | 0.0 | 0.00 | 0.00 | 0.00 | 78 | 1009.8 |
| 20260902062003 | 61 | 0 | 0.0 | 0.0 | 0.00 | 0.00 | 0.00 | 78 | 1009.8 |
| 20260902061502 | 61 | 0 | 0.0 | 0.0 | 0.00 | 0.00 | 0.00 | 77 | 1009.7 |
| 20260902061003 | 61 | 0 | 0.0 | 0.0 | 0.00 | 0.00 | 0.00 | 77 | 1009.7 |
| 20260902060502 | 61 | 0 | 0.0 | 0.0 | 0.00 | 0.00 | 0.00 | 77 | 1009.7 |
| 20260902060002 | 62 | 0 | 0.0 | 0.0 | 0.00 | 0.00 | 0.00 | 77 | 1009.7 |
| 20260902055502 | 62 | 0 | 0.0 | 0.0 | 0.00 | 0.00 | 0.00 | 76 | 1009.7 |
| 20260902055002 | 62 | 0 | 0.0 | 0.0 | 0.00 | 0.00 | 0.00 | 76 | 1009.9 |
| 20260902054524 | 62 | 0 | 0.0 | 0.0 | 0.00 | 0.00 | 0.00 | 76 | 1010.0 |
| 20260902054002 | 62 | 0 | 0.0 | 0.0 | 0.00 | 0.00 | 0.00 | 76 | 1010.1 |
| 20260902053502 | 62 | 0 | 0.0 | 0.0 | 0.00 | 0.00 | 0.00 | 75 | 1010.1 |
| 20260902053003 | 62 | 137 | 0.0 | 3.0 | 0.00 | 0.00 | 0.00 | 75 | 1010.0 |
| 20260902052502 | 62 | 137 | 0.0 | 3.0 | 0.00 | 0.00 | 0.00 | 75 | 1010.1 |
| 20260902052002 | 62 | 0 | 0.0 | 0.0 | 0.00 | 0.00 | 0.00 | 75 | 1010.0 |
| 20260902051502 | 62 | 175 | 0.0 | 1.0 | 0.00 | 0.00 | 0.00 | 75 | 1009.9 |
| 20260902051002 | 62 | 210 | 0.0 | 3.0 | 0.00 | 0.00 | 0.00 | 75 | 1010.0 |
| 20260902050502 | 62 | 214 | 0.0 | 3.0 | 0.00 | 0.00 | 0.00 | 75 | 1010.0 |
| 20260902050004 | 62 | 213 | 0.0 | 1.0 | 0.00 | 0.00 | 0.00 | 74 | 1010.0 |
| 20260902045502 | 62 | 0 | 0.0 | 0.0 | 0.00 | 0.00 | 0.00 | 74 | 1010.0 |
| 20260902045002 | 62 | 0 | 0.0 | 0.0 | 0.00 | 0.00 | 0.00 | 74 | 1009.9 |
| 20260902044502 | 62 | 0 | 0.0 | 0.0 | 0.00 | 0.00 | 0.00 | 74 | 1009.9 |
| 20260902044002 | 62 | 0 | 0.0 | 0.0 | 0.00 | 0.00 | 0.00 | 74 | 1009.9 |
| 20260902043523 | 62 | 0 | 0.0 | 0.0 | 0.00 | 0.00 | 0.00 | 74 | 1009.9 |
| 20260902043002 | 62 | 0 | 0.0 | 0.0 | 0.00 | 0.00 | 0.00 | 74 | 1010.0 |
| 20260902042503 | 62 | 0 | 0.0 | 0.0 | 0.00 | 0.00 | 0.00 | 74 | 1010.0 |
| 20260902042002 | 63 | 0 | 0.0 | 0.0 | 0.00 | 0.00 | 0.00 | 74 | 1009.9 |
| 20260902041502 | 63 | 194 | 0.0 | 2.0 | 0.00 | 0.00 | 0.00 | 74 | 1009.9 |
| 20260902041003 | 63 | 194 | 0.0 | 2.0 | 0.00 | 0.00 | 0.00 | 74 | 1009.9 |
| 20260902040523 | 63 | 194 | 0.0 | 2.0 | 0.00 | 0.00 | 0.00 | 74 | 1009.9 |
| 20260902040002 | 63 | 182 | 0.0 | 2.0 | 0.00 | 0.00 | 0.00 | 73 | 1009.8 |
| 20260902035502 | 63 | 197 | 0.0 | 3.0 | 0.00 | 0.00 | 0.00 | 73 | 1009.8 |
| 20260902035002 | 63 | 199 | 0.0 | 3.0 | 0.00 | 0.00 | 0.00 | 73 | 1009.8 |
| 20260902034502 | 63 | 177 | 0.0 | 4.0 | 0.00 | 0.00 | 0.00 | 74 | 1009.7 |
| 20260902034002 | 63 | 180 | 0.0 | 4.0 | 0.00 | 0.00 | 0.00 | 74 | 1009.8 |
| 20260902033503 | 63 | 0 | 0.0 | 0.0 | 0.00 | 0.00 | 0.00 | 74 | 1009.8 |
| 20260902033003 | 63 | 0 | 0.0 | 0.0 | 0.00 | 0.00 | 0.00 | 74 | 1009.8 |
| 20260902032502 | 63 | 0 | 0.0 | 0.0 | 0.00 | 0.00 | 0.00 | 73 | 1009.8 |
| 20260902032002 | 64 | 0 | 0.0 | 0.0 | 0.00 | 0.00 | 0.00 | 73 | 1009.8 |
| 20260902031503 | 64 | 185 | 0.0 | 3.0 | 0.00 | 0.00 | 0.00 | 73 | 1009.7 |
| 20260902031002 | 64 | 181 | 1.0 | 4.0 | 0.00 | 0.00 | 0.00 | 73 | 1009.7 |
| 20260902030502 | 64 | 175 | 0.0 | 4.0 | 0.00 | 0.00 | 0.00 | 73 | 1009.7 |
| 20260902030003 | 64 | 178 | 0.0 | 1.0 | 0.00 | 0.00 | 0.00 | 73 | 1009.7 |
| 20260902025523 | 64 | 216 | 0.0 | 2.0 | 0.00 | 0.00 | 0.00 | 72 | 1009.7 |
| 20260902025002 | 64 | 207 | 0.0 | 3.0 | 0.00 | 0.00 | 0.00 | 72 | 1009.7 |
| 20260902024503 | 64 | 210 | 0.0 | 3.0 | 0.00 | 0.00 | 0.00 | 72 | 1009.7 |
| 20260902024003 | 64 | 216 | 0.0 | 2.0 | 0.00 | 0.00 | 0.00 | 72 | 1009.7 |
| 20260902023503 | 64 | 0 | 0.0 | 0.0 | 0.00 | 0.00 | 0.00 | 72 | 1009.6 |
| 20260902023023 | 64 | 213 | 0.0 | 3.0 | 0.00 | 0.00 | 0.00 | 71 | 1009.6 |
| 20260902022523 | 64 | 205 | 0.0 | 3.0 | 0.00 | 0.00 | 0.00 | 71 | 1009.6 |
| 20260902022002 | 64 | 207 | 0.0 | 1.0 | 0.00 | 0.00 | 0.00 | 70 | 1009.5 |
| 20260902021503 | 64 | 222 | 0.0 | 7.0 | 0.00 | 0.00 | 0.00 | 70 | 1009.5 |
| 20260902021002 | 65 | 220 | 0.0 | 7.0 | 0.00 | 0.00 | 0.00 | 69 | 1009.5 |
| 20260902020502 | 65 | 218 | 0.0 | 4.0 | 0.00 | 0.00 | 0.00 | 69 | 1009.5 |
| 20260902020002 | 65 | 225 | 0.0 | 3.0 | 0.00 | 0.00 | 0.00 | 69 | 1009.5 |
| 20260902015503 | 65 | 232 | 0.0 | 3.0 | 0.00 | 0.00 | 0.00 | 69 | 1009.4 |
| 20260902015002 | 65 | 222 | 0.0 | 2.0 | 0.00 | 0.00 | 0.00 | 69 | 1009.4 |
| 20260902014503 | 66 | 215 | 0.0 | 3.0 | 0.00 | 0.00 | 0.00 | 68 | 1009.4 |
| 20260902014003 | 66 | 217 | 1.0 | 4.0 | 0.00 | 0.00 | 0.00 | 68 | 1009.4 |
| 20260902013523 | 66 | 210 | 1.0 | 4.0 | 0.00 | 0.00 | 0.00 | 68 | 1009.3 |
| 20260902013002 | 66 | 189 | 0.0 | 4.0 | 0.00 | 0.00 | 0.00 | 68 | 1009.4 |
| 20260902012502 | 66 | 178 | 0.0 | 4.0 | 0.00 | 0.00 | 0.00 | 67 | 1009.3 |
| 20260902012002 | 66 | 217 | 0.0 | 4.0 | 0.00 | 0.00 | 0.00 | 67 | 1009.4 |
| 20260902011503 | 66 | 210 | 0.0 | 4.0 | 0.00 | 0.00 | 0.00 | 66 | 1009.3 |
| 20260902011002 | 66 | 215 | 0.0 | 6.0 | 0.00 | 0.00 | 0.00 | 66 | 1009.3 |
| 20260902010502 | 66 | 220 | 0.0 | 6.0 | 0.00 | 0.00 | 0.00 | 65 | 1009.3 |
| 20260902010003 | 66 | 229 | 0.0 | 3.0 | 0.00 | 0.00 | 0.00 | 64 | 1009.3 |
| 20260902005523 | 67 | 220 | 0.0 | 6.0 | 0.00 | 0.00 | 0.00 | 64 | 1009.2 |
| 20260902005023 | 67 | 220 | 0.0 | 6.0 | 0.00 | 0.00 | 0.00 | 63 | 1009.2 |
| 20260902004502 | 67 | 204 | 0.0 | 4.0 | 0.00 | 0.00 | 0.00 | 63 | 1009.2 |
| 20260902004002 | 67 | 225 | 0.0 | 6.0 | 0.00 | 0.00 | 0.00 | 62 | 1009.2 |
| 20260902003524 | 67 | 218 | 0.0 | 6.0 | 0.00 | 0.00 | 0.00 | 62 | 1009.2 |
| 20260902003002 | 68 | 213 | 0.0 | 3.0 | 0.00 | 0.00 | 0.00 | 61 | 1009.1 |
| 20260902002502 | 68 | 223 | 1.0 | 5.0 | 0.00 | 0.00 | 0.00 | 61 | 1009.0 |
| 20260902002003 | 68 | 216 | 0.0 | 5.0 | 0.00 | 0.00 | 0.00 | 60 | 1009.0 |
| 20260902001502 | 69 | 190 | 0.0 | 5.0 | 0.00 | 0.00 | 0.00 | 60 | 1009.0 |
| 20260902001024 | 70 | 185 | 0.0 | 5.0 | 0.00 | 0.00 | 0.00 | 59 | 1008.9 |
| 20260902000503 | 70 | 192 | 0.0 | 5.0 | 0.00 | 0.00 | 0.00 | 59 | 1009.0 |
| 20260902000003 | 70 | 202 | 0.0 | 4.0 | 0.00 | 0.00 | 0.00 | 58 | 1009.0 |
| 20260901235502 | 71 | 196 | 0.0 | 2.0 | 0.00 | 0.00 | 0.00 | 58 | 1009.0 |
| 20260901235002 | 72 | 196 | 0.0 | 2.0 | 0.00 | 0.00 | 0.00 | 57 | 1009.0 |
| 20260901234523 | 72 | 204 | 0.0 | 1.0 | 0.00 | 0.00 | 0.00 | 58 | 1009.0 |
| 20260901234003 | 71 | 222 | 0.0 | 1.0 | 0.00 | 0.00 | 0.00 | 58 | 1009.0 |
| 20260901233503 | 71 | 218 | 0.0 | 1.0 | 0.00 | 0.00 | 0.00 | 58 | 1009.1 |
| 20260901233002 | 71 | 215 | 0.0 | 2.0 | 0.00 | 0.00 | 0.00 | 58 | 1009.3 |
| 20260901232524 | 71 | 216 | 0.0 | 2.0 | 0.00 | 0.00 | 0.00 | 59 | 1009.2 |
| 20260901232003 | 71 | 197 | 0.0 | 1.0 | 0.00 | 0.00 | 0.00 | 58 | 1009.3 |
| 20260901231502 | 71 | 206 | 0.0 | 1.0 | 0.00 | 0.00 | 0.00 | 58 | 1009.2 |
| 20260901231002 | 71 | 214 | 0.0 | 1.0 | 0.00 | 0.00 | 0.00 | 58 | 1009.3 |
| 20260901230502 | 71 | 221 | 0.0 | 2.0 | 0.00 | 0.00 | 0.00 | 58 | 1009.2 |
| 20260901230002 | 71 | 213 | 0.0 | 2.0 | 0.00 | 0.00 | 0.00 | 58 | 1009.3 |
| 20260901225503 | 71 | 198 | 0.0 | 1.0 | 0.00 | 0.00 | 0.00 | 59 | 1009.3 |
| 20260901225002 | 70 | 233 | 0.0 | 1.0 | 0.00 | 0.00 | 0.00 | 60 | 1009.4 |
| 20260901224502 | 71 | 231 | 0.0 | 1.0 | 0.00 | 0.00 | 0.00 | 59 | 1009.4 |
| 20260901224024 | 71 | 226 | 0.0 | 2.0 | 0.00 | 0.00 | 0.00 | 58 | 1009.4 |
| 20260901223502 | 72 | 223 | 0.0 | 2.0 | 0.00 | 0.00 | 0.00 | 58 | 1009.4 |
| 20260901223003 | 72 | 222 | 0.0 | 1.0 | 0.00 | 0.00 | 0.00 | 57 | 1009.4 |
| 20260901222502 | 72 | 243 | 0.0 | 2.0 | 0.00 | 0.00 | 0.00 | 58 | 1009.3 |
| 20260901222002 | 71 | 230 | 0.0 | 2.0 | 0.00 | 0.00 | 0.00 | 58 | 1009.3 |
| 20260901221503 | 71 | 207 | 0.0 | 2.0 | 0.00 | 0.00 | 0.00 | 58 | 1009.4 |
| 20260901221002 | 71 | 195 | 0.0 | 3.0 | 0.00 | 0.00 | 0.00 | 59 | 1009.3 |
| 20260901220524 | 71 | 188 | 0.0 | 3.0 | 0.00 | 0.00 | 0.00 | 58 | 1009.3 |
| 20260901220002 | 71 | 207 | 0.0 | 2.0 | 0.00 | 0.00 | 0.00 | 59 | 1009.3 |
| 20260901215503 | 70 | 212 | 0.0 | 4.0 | 0.00 | 0.00 | 0.00 | 59 | 1009.3 |
| 20260901215003 | 71 | 205 | 0.0 | 4.0 | 0.00 | 0.00 | 0.00 | 58 | 1009.4 |
| 20260901214502 | 71 | 196 | 0.0 | 2.0 | 0.00 | 0.00 | 0.00 | 58 | 1009.3 |
| 20260901214002 | 70 | 193 | 0.0 | 3.0 | 0.00 | 0.00 | 0.00 | 60 | 1009.3 |
| 20260901213503 | 70 | 193 | 0.0 | 3.0 | 0.00 | 0.00 | 0.00 | 61 | 1009.3 |
| 20260901213002 | 69 | 207 | 0.0 | 1.0 | 0.00 | 0.00 | 0.00 | 60 | 1009.4 |
| 20260901212503 | 69 | 216 | 0.0 | 7.0 | 0.00 | 0.00 | 0.00 | 60 | 1009.4 |
| 20260901212003 | 69 | 209 | 0.0 | 7.0 | 0.00 | 0.00 | 0.00 | 59 | 1009.4 |
| 20260901211502 | 69 | 169 | 0.0 | 2.0 | 0.00 | 0.00 | 0.00 | 60 | 1009.4 |
| 20260901211003 | 69 | 187 | 0.0 | 4.0 | 0.00 | 0.00 | 0.00 | 61 | 1009.4 |
| 20260901210502 | 69 | 196 | 0.0 | 4.0 | 0.00 | 0.00 | 0.00 | 63 | 1009.3 |
| 20260901210023 | 68 | 204 | 0.0 | 3.0 | 0.00 | 0.00 | 0.00 | 63 | 1009.4 |
| 20260901205503 | 68 | 188 | 1.0 | 6.0 | 0.00 | 0.00 | 0.00 | 62 | 1009.5 |
| 20260901205002 | 68 | 181 | 1.0 | 6.0 | 0.00 | 0.00 | 0.00 | 63 | 1009.5 |
| 20260901204503 | 67 | 144 | 1.0 | 3.0 | 0.00 | 0.00 | 0.00 | 65 | 1009.5 |
| 20260901204002 | 67 | 135 | 1.0 | 3.0 | 0.00 | 0.00 | 0.00 | 65 | 1009.5 |
| 20260901203523 | 67 | 167 | 0.0 | 3.0 | 0.00 | 0.00 | 0.00 | 66 | 1009.6 |
| 20260901203002 | 67 | 168 | 0.0 | 2.0 | 0.00 | 0.00 | 0.00 | 65 | 1009.6 |
| 20260901202503 | 67 | 169 | 0.0 | 2.0 | 0.00 | 0.00 | 0.00 | 66 | 1009.6 |
| 20260901202003 | 67 | 179 | 0.0 | 2.0 | 0.00 | 0.00 | 0.00 | 66 | 1009.6 |
| 20260901201523 | 67 | 216 | 0.0 | 2.0 | 0.00 | 0.00 | 0.00 | 67 | 1009.7 |
| 20260901201003 | 66 | 203 | 0.0 | 2.0 | 0.00 | 0.00 | 0.00 | 68 | 1009.6 |
| 20260901200502 | 66 | 216 | 0.0 | 7.0 | 0.00 | 0.00 | 0.00 | 69 | 1009.6 |